Lid_Strength_Index
-1 -1 -1 -1 -1 -1 -1 -1 -1 -1 -2 -2 -1 -2 -2 -2 -2 0 3 2 0 -5 -4 0 1 1 2 3 3 3 8 9 9 8 7 5 6 4 4 5 5 5 5 4 2
-1 -1 -1 -1 -1 -1 -2 -1 -1 -1 -2 -2 -2 -1 -2 -2 0 2 1 -4 -4 -5 0 1 2 2 3 4 3 5 8 8 6 6 6 6 5 5 6 6 6 5 4 3 3
-1 -1 -1 -1 -1 -1 -2 -2 -2 -2 -2 -2 -2 -2 -2 -1 2 3 -3 -5 -4 -3 -0 1 1 3 5 4 4 5 8 6 6 5 5 5 5 4 6 6 5 6 5 4 4
-1 -1 -1 -1 -1 -1 -2 -1 -1 -2 -2 -2 -2 -2 -2 0 7 2 -4 -4 -4 -0 1 2 2 4 5 6 5 6 5 5 5 5 5 5 5 6 5 5 4 5 5 4 4
-0 -1 -1 -1 -1 -1 -1 -1 -1 -1 -1 -1 -2 -2 1 3 4 1 -4 -2 1 1 2 3 4 4 6 6 6 6 6 6 6 6 6 6 7 6 6 4 4 5 5 5 5
-0 -1 -1 -1 -1 -1 -1 -1 -1 -1 -1 -1 -1 -1 2 6 2 1 1 1 2 1 3 3 4 4 6 6 6 6 7 7 7 7 7 8 7 7 6 5 5 5 5 5 5
-0 -0 -0 -0 -1 -1 -1 -1 -1 -1 -1 -1 -1 1 4 5 2 1 2 2 2 2 3 3 3 4 5 7 6 7 8 7 7 6 7 7 8 8 6 6 6 6 6 5 5
-0 0 0 0 -0 -0 -1 -0 -0 -0 -1 -1 -1 2 5 2 1 3 2 2 2 2 3 3 3 4 5 5 6 7 7 8 7 7 7 8 9 7 6 6 6 6 6 6 5
0 0 1 0 0 0 -0 -0 -0 -1 -1 -1 2 4 6 3 4 3 2 3 3 3 3 3 3 5 6 7 8 7 9 9 9 7 7 8 8 7 6 7 7 6 6 6 6
1 1 1 0 0 0 0 0 -1 0 1 1 3 5 5 6 4 4 2 3 4 4 4 5 5 6 7 8 10 9 9 9 10 8 8 9 9 7 6 7 7 6 6 6 7
1 1 2 1 0 1 1 1 4 5 4 5 6 6 6 4 4 4 3 4 4 5 7 6 8 8 7 8 9 9 10 10 9 8 10 9 9 8 7 7 7 7 7 7 7
0 1 2 1 1 1 2 4 4 4 6 4 5 6 5 5 7 5 4 6 7 8 7 8 9 7 8 8 9 9 10 10 9 9 10 9 9 8 7 7 7 7 7 7 7
1 1 2 2 2 2 3 3 2 2 6 6 4 5 6 5 7 6 5 6 7 8 8 9 8 8 8 9 9 9 10 10 11 9 9 10 10 8 8 7 8 8 7 7 7
1 2 2 2 4 3 3 3 2 2 9 8 8 6 6 5 8 5 5 6 8 9 8 8 8 9 9 9 9 10 10 10 11 11 11 10 12 9 9 9 8 8 8 8 7
1 2 3 3 3 4 4 2 2 4 15 9 8 5 6 7 7 8 6 6 9 9 9 10 9 10 10 9 9 10 10 10 10 11 10 10 13 10 9 10 9 8 8 8 7
0 1 3 3 3 3 2 2 4 10 14 11 8 9 9 8 8 7 7 6 6 9 8 9 8 8 9 9 10 9 10 10 10 10 13 10 12 10 10 10 9 8 8 7 7
1 1 3 2 4 3 2 5 11 14 10 11 10 9 9 9 9 9 9 9 10 12 11 10 10 9 9 10 10 10 10 12 13 13 13 11 13 11 9 8 8 9 8 7 7
2 2 2 1 1 2 4 8 14 11 10 9 9 9 10 9 9 9 9 10 9 9 10 12 13 10 9 9 10 10 10 12 15 13 12 12 13 10 8 8 8 7 7 7 7
2 2 2 1 1 2 6 12 12 11 10 10 10 11 11 10 10 10 10 10 9 9 11 12 12 10 10 10 10 11 13 10 12 12 13 11 10 8 9 9 9 8 7 7 7
3 4 3 1 1 4 8 11 10 9 10 9 11 9 11 10 11 10 10 9 9 8 8 10 12 11 11 11 10 11 10 13 13 14 15 11 11 10 11 10 9 9 8 7 6
5 7 6 1 2 7 12 11 9 8 9 10 11 11 9 10 10 10 10 9 8 8 8 9 10 12 12 12 12 12 13 12 12 12 13 13 11 8 8 9 9 8 7 6 6
6 9 7 3 8 8 10 10 9 8 7 9 10 10 10 9 10 10 10 9 8 8 10 9 10 12 12 11 10 11 11 11 13 13 12 12 12 8 7 7 7 7 7 6 5
7 8 7 7 12 10 9 9 9 9 9 9 10 9 9 10 11 9 9 8 8 9 9 9 11 13 13 12 12 13 11 11 11 11 12 13 11 8 8 8 7 7 7 6 5
7 10 11 10 9 11 9 10 11 8 8 8 9 8 10 11 9 10 10 9 9 9 8 8 10 12 13 12 11 13 12 12 12 13 13 12 11 8 8 8 8 7 7 7 6
7 9 9 13 13 11 10 9 11 11 8 8 9 9 10 12 11 11 9 9 9 8 9 9 12 11 10 10 11 11 12 12 14 12 13 12 11 9 8 7 7 7 7 7 7
9 9 9 11 10 10 10 10 10 10 10 9 10 9 9 11 10 11 10 9 9 9 10 9 12 11 12 11 11 13 12 12 13 13 12 12 12 8 8 7 8 7 7 8 7
6 6 8 9 10 11 11 10 9 9 8 8 8 9 9 9 8 8 7 8 8 9 10 10 11 12 14 11 12 14 13 12 12 11 12 13 10 9 9 8 8 7 7 7 7